Pearl River, LA

6:53 AM CST on February 24, 2017 (GMT -0600)
Slidell

Weather History for KASD - January, 2014

Change the Weather History Date:

Thursday, January 2, 2014

  Actual Average (KNEW) Record (KNEW)
Temperature  
Mean Temperature 47 °F -  
Max Temperature 57 °F 61 °F 81 °F (1952)
Min Temperature 36 °F 46 °F 25 °F (1984)
Degree Days  
Heating Degree Days 18    
Moisture  
Dew Point 48 °F    
Average Humidity 80    
Maximum Humidity 100    
Minimum Humidity 47    
Precipitation  
Precipitation 0.27 in - - ()
Sea Level Pressure  
Sea Level Pressure 30.05 in    
Wind  
Wind Speed 6 mph (NNW)    
Max Wind Speed 17 mph    
Max Gust Speed 29 mph    
Visibility 7 miles    
Events Rain    
Averages and records for this station are not official NWS values.
T = Trace of Precipitation, MM = Missing Value Source: NWS Daily Summary

Daily Weather History Graph

Daily Weather History Graph

Search for Another Location

Airport or City:

Trip Planner

Search our weather history database for the weather conditions in past years. The results will help you decide how hot, cold, wet, or windy it might be!

Date:

Astronomy

Jan. 02, 2014 Rise Set
Actual Time 6:56 AM CST 5:10 PM CST
Civil Twilight 6:29 AM CST 5:37 PM CST
Nautical Twilight 6:00 AM CST 6:06 PM CST
Astronomical Twilight 5:30 AM CST 6:36 PM CST
Moon 7:45 AM CST (1/2) 6:58 PM CST (1/2)
Length of Visible Light 11h 07m
Length of Day
10h 14m
Waxing Crescent, 3% of the Moon is Illuminated
Jan 2
Waxing Crescent
Jan 7
First Quarter
Jan 15
Full
Jan 23
Last Quarter
Jan 30
New

Hourly Weather History & Observations

Time (CST) Temp. Windchill Dew Point Humidity Pressure Visibility Wind Dir Wind Speed Gust Speed Precip Events Conditions
12:05 AM 57.0 °F - 55.0 °F 93% 30.02 in 2.5 mi NNE 3.5 mph - N/A   Overcast
12:48 AM 57.2 °F - 55.4 °F 94% 30.00 in 3.0 mi Calm Calm - N/A   Overcast
12:53 AM 57.0 °F - 55.9 °F 96% 30.00 in 3.0 mi Calm Calm - N/A   Overcast
1:07 AM 57.0 °F - 55.0 °F 93% 30.00 in 2.5 mi North 3.5 mph - N/A   Overcast
1:46 AM 57.0 °F - 55.0 °F 93% 29.99 in 1.8 mi NNE 3.5 mph - 0.03 in Rain Light Rain
1:53 AM 57.0 °F - 55.9 °F 96% 29.99 in 1.8 mi NNE 3.5 mph - 0.04 in Rain Light Rain
2:17 AM 57.0 °F - 55.9 °F 96% 29.97 in 2.5 mi North 5.8 mph - 0.02 in Rain Rain
2:32 AM 57.0 °F - 55.0 °F 93% 29.96 in 1.8 mi North 5.8 mph - 0.09 in Rain Heavy Rain
2:39 AM 57.0 °F - 55.0 °F 93% 29.96 in 2.0 mi North 6.9 mph - 0.11 in Rain Rain
2:51 AM 55.4 °F - 55.4 °F 100% 29.96 in 2.0 mi North 4.6 mph - 0.13 in Rain Rain
2:53 AM 57.0 °F - 55.0 °F 93% 29.97 in 2.5 mi Variable 4.6 mph - 0.14 in Rain Light Rain
3:01 AM 57.0 °F - 55.9 °F 96% 29.96 in 5.0 mi NE 3.5 mph - 0.00 in Rain Light Rain
3:22 AM 57.0 °F - 55.9 °F 96% 29.97 in 4.0 mi WNW 3.5 mph - 0.01 in Rain Light Rain
3:38 AM 57.0 °F - 55.9 °F 96% 29.96 in 2.5 mi ESE 3.5 mph - 0.05 in Rain Rain
3:53 AM 57.0 °F - 55.9 °F 96% 29.97 in 4.0 mi WNW 4.6 mph - 0.06 in Rain Light Rain
4:19 AM 57.0 °F - 55.9 °F 96% 29.96 in 7.0 mi North 4.6 mph - 0.00 in   Overcast
4:28 AM 57.0 °F - 55.9 °F 96% 29.95 in 7.0 mi NNE 5.8 mph - 0.00 in   Overcast
4:53 AM 55.9 °F - 55.0 °F 97% 29.96 in 6.0 mi North 3.5 mph - 0.00 in   Overcast
5:28 AM 55.9 °F - 55.0 °F 97% 29.95 in 6.0 mi North 5.8 mph - N/A   Mostly Cloudy
5:53 AM 55.9 °F - 55.0 °F 97% 29.97 in 6.0 mi NNW 10.4 mph 19.6 mph N/A   Overcast
6:20 AM 57.0 °F - 55.9 °F 96% 29.97 in 4.0 mi Calm Calm - 0.02 in Rain Light Rain
6:53 AM 57.0 °F - 55.0 °F 93% 29.98 in 7.0 mi Calm Calm - 0.03 in   Overcast
7:53 AM 57.9 °F - 55.9 °F 93% 30.00 in 8.0 mi NW 3.5 mph - N/A   Overcast
8:01 AM 57.9 °F - 55.9 °F 93% 30.00 in 9.0 mi WNW 3.5 mph - N/A   Overcast
8:27 AM 57.9 °F - 55.9 °F 93% 30.02 in 9.0 mi NW 6.9 mph - N/A   Overcast
8:53 AM 57.9 °F - 55.9 °F 93% 30.02 in 10.0 mi NW 6.9 mph - N/A   Overcast
9:53 AM 57.9 °F - 54.0 °F 87% 30.05 in 10.0 mi NNW 8.1 mph - N/A   Mostly Cloudy
10:10 AM 57.9 °F - 52.0 °F 81% 30.05 in 10.0 mi NW 11.5 mph 18.4 mph N/A   Scattered Clouds
10:53 AM 57.9 °F - 50.0 °F 75% 30.06 in 10.0 mi NW 11.5 mph 25.3 mph N/A   Partly Cloudy
11:30 AM 57.9 °F - 48.9 °F 72% 30.05 in 10.0 mi NNW 9.2 mph 23.0 mph N/A   Mostly Cloudy
11:53 AM 57.0 °F - 46.0 °F 67% 30.04 in 10.0 mi NW 17.3 mph 26.5 mph N/A   Mostly Cloudy
12:06 PM 57.0 °F - 45.0 °F 64% 30.04 in 10.0 mi NNW 11.5 mph 24.2 mph N/A   Scattered Clouds
12:42 PM 55.9 °F - 44.1 °F 64% 30.04 in 10.0 mi NW 17.3 mph 28.8 mph N/A   Mostly Cloudy
12:53 PM 55.9 °F - 44.1 °F 64% 30.05 in 10.0 mi North 15.0 mph 23.0 mph N/A   Mostly Cloudy
1:05 PM 55.9 °F - 44.1 °F 64% 30.05 in 10.0 mi North 12.7 mph 23.0 mph N/A   Scattered Clouds
1:53 PM 55.9 °F - 41.0 °F 57% 30.06 in 10.0 mi NNW 17.3 mph 25.3 mph N/A   Partly Cloudy
2:53 PM 55.0 °F - 36.0 °F 49% 30.09 in 10.0 mi NNW 16.1 mph 25.3 mph N/A   Clear
3:53 PM 53.1 °F - 34.0 °F 48% 30.14 in 10.0 mi NNW 10.4 mph 25.3 mph N/A   Clear
4:53 PM 48.9 °F - 30.9 °F 50% 30.20 in 10.0 mi North 11.5 mph 23.0 mph N/A   Clear
5:53 PM 46.0 °F 41.9 °F 27.0 °F 47% 30.22 in 10.0 mi North 8.1 mph - N/A   Clear
6:53 PM 44.1 °F 40.1 °F 28.0 °F 53% 30.25 in 10.0 mi NNW 6.9 mph 16.1 mph N/A   Clear
7:53 PM 42.1 °F 37.1 °F 27.0 °F 55% 30.30 in 10.0 mi North 8.1 mph 18.4 mph N/A   Clear
8:53 PM 41.0 °F 36.4 °F 25.0 °F 53% 30.32 in 10.0 mi North 6.9 mph - N/A   Clear
9:53 PM 39.0 °F 32.3 °F 26.1 °F 60% 30.33 in 10.0 mi NNW 10.4 mph - N/A   Clear
10:53 PM 37.9 °F 30.5 °F 25.0 °F 60% 30.35 in 10.0 mi North 11.5 mph 21.9 mph N/A   Clear
11:53 PM 36.0 °F 30.3 °F 24.1 °F 62% 30.36 in 10.0 mi North 6.9 mph - N/A   Clear